Location: Unspecified
(0.0000°N, 0.0000°E)
Time: 22:15:16
(UTC+00:00)

FAST 2 (USA 228) - Visible Passes

Search period start: 30 May 2024 00:00
Search period end: 09 June 2024 00:00
Orbit: 614 x 633 km, 72.0° (Epoch: 30 May)

Date Brightness Start Highest point End Pass type
(mag) Time Alt. Az. Time Alt. Az. Time Alt. Az.
30 May ? 20:03:44 10° NNW 20:06:00 30° NNW 20:06:00 30° NNW visible
31 May ? 20:22:59 10° NW 20:25:23 25° WNW 20:25:23 25° WNW visible
01 Jun ? 19:03:08 10° NNE 19:06:54 27° ENE 19:07:32 26° E visible
01 Jun ? 20:43:59 10° W 20:44:50 12° W 20:44:50 12° W visible
02 Jun ? 19:21:14 10° N 19:25:42 76° ENE 19:27:03 44° SSE visible
03 Jun ? 19:40:21 10° NW 19:44:30 37° WSW 19:46:36 24° SSW visible
04 Jun ? 18:20:49 10° NNE 18:24:23 24° ENE 18:28:00 10° SE visible
04 Jun ? 20:00:54 10° WNW 20:03:18 14° WSW 20:05:43 10° SW visible
05 Jun ? 18:38:45 10° N 18:43:10 66° ENE 18:47:38 10° SSE visible
06 Jun ? 18:57:43 10° NNW 19:01:57 43° WSW 19:06:15 10° S visible
07 Jun ? 05:30:39 10° SE 05:32:34 13° ESE 05:34:29 10° E visible
07 Jun ? 19:17:57 10° WNW 19:20:46 16° WSW 19:23:36 10° SW visible
